Index of /20260430/WXO-DD/model_gdps/15km/12/105
Name Last modified Size Description
Parent Directory -
20260430T12Z_MSC_GDPS_AbsoluteVorticity_IsbL-0200_LatLon0.15_PT105H.grib2 2026-04-30 16:24 1.5M
20260430T12Z_MSC_GDPS_AbsoluteVorticity_IsbL-0250_LatLon0.15_PT105H.grib2 2026-04-30 16:24 1.3M
20260430T12Z_MSC_GDPS_AbsoluteVorticity_IsbL-0500_LatLon0.15_PT105H.grib2 2026-04-30 16:24 1.4M
20260430T12Z_MSC_GDPS_AbsoluteVorticity_IsbL-0700_LatLon0.15_PT105H.grib2 2026-04-30 16:24 1.6M
20260430T12Z_MSC_GDPS_AbsoluteVorticity_IsbL-0850_LatLon0.15_PT105H.grib2 2026-04-30 16:24 1.6M
20260430T12Z_MSC_GDPS_AirTemp_AGL-120m_LatLon0.15_PT105H.grib2 2026-04-30 16:24 908K
20260430T12Z_MSC_GDPS_AirTemp_AGL-2m_LatLon0.15_PT105H.grib2 2026-04-30 16:24 1.0M
20260430T12Z_MSC_GDPS_AirTemp_AGL-40m_LatLon0.15_PT105H.grib2 2026-04-30 16:24 815K
20260430T12Z_MSC_GDPS_AirTemp_AGL-80m_LatLon0.15_PT105H.grib2 2026-04-30 16:24 802K
20260430T12Z_MSC_GDPS_AirTemp_IsbL-0001_LatLon0.15_PT105H.grib2 2026-04-30 16:24 714K
20260430T12Z_MSC_GDPS_AirTemp_IsbL-0005_LatLon0.15_PT105H.grib2 2026-04-30 16:24 681K
20260430T12Z_MSC_GDPS_AirTemp_IsbL-0010_LatLon0.15_PT105H.grib2 2026-04-30 16:24 696K
20260430T12Z_MSC_GDPS_AirTemp_IsbL-0020_LatLon0.15_PT105H.grib2 2026-04-30 16:24 792K
20260430T12Z_MSC_GDPS_AirTemp_IsbL-0030_LatLon0.15_PT105H.grib2 2026-04-30 16:24 843K
20260430T12Z_MSC_GDPS_AirTemp_IsbL-0050_LatLon0.15_PT105H.grib2 2026-04-30 16:24 818K
20260430T12Z_MSC_GDPS_AirTemp_IsbL-0100_LatLon0.15_PT105H.grib2 2026-04-30 16:24 972K
20260430T12Z_MSC_GDPS_AirTemp_IsbL-0150_LatLon0.15_PT105H.grib2 2026-04-30 16:24 971K
20260430T12Z_MSC_GDPS_AirTemp_IsbL-0175_LatLon0.15_PT105H.grib2 2026-04-30 16:24 961K
20260430T12Z_MSC_GDPS_AirTemp_IsbL-0200_LatLon0.15_PT105H.grib2 2026-04-30 16:24 971K
20260430T12Z_MSC_GDPS_AirTemp_IsbL-0225_LatLon0.15_PT105H.grib2 2026-04-30 16:24 1.0M
20260430T12Z_MSC_GDPS_AirTemp_IsbL-0250_LatLon0.15_PT105H.grib2 2026-04-30 16:24 1.0M
20260430T12Z_MSC_GDPS_AirTemp_IsbL-0275_LatLon0.15_PT105H.grib2 2026-04-30 16:24 1.0M
20260430T12Z_MSC_GDPS_AirTemp_IsbL-0300_LatLon0.15_PT105H.grib2 2026-04-30 16:24 943K
20260430T12Z_MSC_GDPS_AirTemp_IsbL-0350_LatLon0.15_PT105H.grib2 2026-04-30 16:24 928K
20260430T12Z_MSC_GDPS_AirTemp_IsbL-0400_LatLon0.15_PT105H.grib2 2026-04-30 16:24 941K
20260430T12Z_MSC_GDPS_AirTemp_IsbL-0450_LatLon0.15_PT105H.grib2 2026-04-30 16:24 963K
20260430T12Z_MSC_GDPS_AirTemp_IsbL-0500_LatLon0.15_PT105H.grib2 2026-04-30 16:24 1.0M
20260430T12Z_MSC_GDPS_AirTemp_IsbL-0550_LatLon0.15_PT105H.grib2 2026-04-30 16:24 801K
20260430T12Z_MSC_GDPS_AirTemp_IsbL-0600_LatLon0.15_PT105H.grib2 2026-04-30 16:24 891K
20260430T12Z_MSC_GDPS_AirTemp_IsbL-0650_LatLon0.15_PT105H.grib2 2026-04-30 16:24 912K
20260430T12Z_MSC_GDPS_AirTemp_IsbL-0700_LatLon0.15_PT105H.grib2 2026-04-30 16:24 952K
20260430T12Z_MSC_GDPS_AirTemp_IsbL-0750_LatLon0.15_PT105H.grib2 2026-04-30 16:24 1.0M
20260430T12Z_MSC_GDPS_AirTemp_IsbL-0800_LatLon0.15_PT105H.grib2 2026-04-30 16:24 1.1M
20260430T12Z_MSC_GDPS_AirTemp_IsbL-0850_LatLon0.15_PT105H.grib2 2026-04-30 16:24 1.1M
20260430T12Z_MSC_GDPS_AirTemp_IsbL-0875_LatLon0.15_PT105H.grib2 2026-04-30 16:24 1.2M
20260430T12Z_MSC_GDPS_AirTemp_IsbL-0900_LatLon0.15_PT105H.grib2 2026-04-30 16:24 1.1M
20260430T12Z_MSC_GDPS_AirTemp_IsbL-0925_LatLon0.15_PT105H.grib2 2026-04-30 16:24 1.1M
20260430T12Z_MSC_GDPS_AirTemp_IsbL-0950_LatLon0.15_PT105H.grib2 2026-04-30 16:24 1.1M
20260430T12Z_MSC_GDPS_AirTemp_IsbL-0970_LatLon0.15_PT105H.grib2 2026-04-30 16:24 1.1M
20260430T12Z_MSC_GDPS_AirTemp_IsbL-0985_LatLon0.15_PT105H.grib2 2026-04-30 16:24 1.1M
20260430T12Z_MSC_GDPS_AirTemp_IsbL-1000_LatLon0.15_PT105H.grib2 2026-04-30 16:24 1.1M
20260430T12Z_MSC_GDPS_AirTemp_IsbL-1015_LatLon0.15_PT105H.grib2 2026-04-30 16:24 1.1M
20260430T12Z_MSC_GDPS_Albedo_Sfc_LatLon0.15_PT105H.grib2 2026-04-30 16:24 243K
20260430T12Z_MSC_GDPS_CAPE_Sfc_LatLon0.15_PT105H.grib2 2026-04-30 16:24 3.9M
20260430T12Z_MSC_GDPS_CIN_Sfc_LatLon0.15_PT105H.grib2 2026-04-30 16:24 2.8M
20260430T12Z_MSC_GDPS_CloudWater_EAtm_LatLon0.15_PT105H.grib2 2026-04-30 16:24 532K
20260430T12Z_MSC_GDPS_ConvectivePrecip-Accum_Sfc_LatLon0.15_PT105H.grib2 2026-04-30 16:24 3.4M
20260430T12Z_MSC_GDPS_DewPointDepression_AGL-2m_LatLon0.15_PT105H.grib2 2026-04-30 16:24 764K
20260430T12Z_MSC_GDPS_DewPointDepression_IsbL-0010_LatLon0.15_PT105H.grib2 2026-04-30 16:24 74K
20260430T12Z_MSC_GDPS_DewPointDepression_IsbL-0020_LatLon0.15_PT105H.grib2 2026-04-30 16:24 75K
20260430T12Z_MSC_GDPS_DewPointDepression_IsbL-0030_LatLon0.15_PT105H.grib2 2026-04-30 16:24 89K
20260430T12Z_MSC_GDPS_DewPointDepression_IsbL-0050_LatLon0.15_PT105H.grib2 2026-04-30 16:24 386K
20260430T12Z_MSC_GDPS_DewPointDepression_IsbL-0100_LatLon0.15_PT105H.grib2 2026-04-30 16:24 405K
20260430T12Z_MSC_GDPS_DewPointDepression_IsbL-0150_LatLon0.15_PT105H.grib2 2026-04-30 16:24 472K
20260430T12Z_MSC_GDPS_DewPointDepression_IsbL-0175_LatLon0.15_PT105H.grib2 2026-04-30 16:24 578K
20260430T12Z_MSC_GDPS_DewPointDepression_IsbL-0200_LatLon0.15_PT105H.grib2 2026-04-30 16:24 682K
20260430T12Z_MSC_GDPS_DewPointDepression_IsbL-0225_LatLon0.15_PT105H.grib2 2026-04-30 16:24 773K
20260430T12Z_MSC_GDPS_DewPointDepression_IsbL-0250_LatLon0.15_PT105H.grib2 2026-04-30 16:24 860K
20260430T12Z_MSC_GDPS_DewPointDepression_IsbL-0275_LatLon0.15_PT105H.grib2 2026-04-30 16:24 880K
20260430T12Z_MSC_GDPS_DewPointDepression_IsbL-0300_LatLon0.15_PT105H.grib2 2026-04-30 16:24 924K
20260430T12Z_MSC_GDPS_DewPointDepression_IsbL-0350_LatLon0.15_PT105H.grib2 2026-04-30 16:24 959K
20260430T12Z_MSC_GDPS_DewPointDepression_IsbL-0400_LatLon0.15_PT105H.grib2 2026-04-30 16:24 1.0M
20260430T12Z_MSC_GDPS_DewPointDepression_IsbL-0450_LatLon0.15_PT105H.grib2 2026-04-30 16:24 1.0M
20260430T12Z_MSC_GDPS_DewPointDepression_IsbL-0500_LatLon0.15_PT105H.grib2 2026-04-30 16:24 1.0M
20260430T12Z_MSC_GDPS_DewPointDepression_IsbL-0550_LatLon0.15_PT105H.grib2 2026-04-30 16:24 1.0M
20260430T12Z_MSC_GDPS_DewPointDepression_IsbL-0600_LatLon0.15_PT105H.grib2 2026-04-30 16:24 1.0M
20260430T12Z_MSC_GDPS_DewPointDepression_IsbL-0650_LatLon0.15_PT105H.grib2 2026-04-30 16:24 1.1M
20260430T12Z_MSC_GDPS_DewPointDepression_IsbL-0700_LatLon0.15_PT105H.grib2 2026-04-30 16:24 1.1M
20260430T12Z_MSC_GDPS_DewPointDepression_IsbL-0750_LatLon0.15_PT105H.grib2 2026-04-30 16:24 1.1M
20260430T12Z_MSC_GDPS_DewPointDepression_IsbL-0800_LatLon0.15_PT105H.grib2 2026-04-30 16:24 1.2M
20260430T12Z_MSC_GDPS_DewPointDepression_IsbL-0850_LatLon0.15_PT105H.grib2 2026-04-30 16:24 1.2M
20260430T12Z_MSC_GDPS_DewPointDepression_IsbL-0875_LatLon0.15_PT105H.grib2 2026-04-30 16:24 1.1M
20260430T12Z_MSC_GDPS_DewPointDepression_IsbL-0900_LatLon0.15_PT105H.grib2 2026-04-30 16:24 1.1M
20260430T12Z_MSC_GDPS_DewPointDepression_IsbL-0925_LatLon0.15_PT105H.grib2 2026-04-30 16:24 1.0M
20260430T12Z_MSC_GDPS_DewPointDepression_IsbL-0950_LatLon0.15_PT105H.grib2 2026-04-30 16:24 1.0M
20260430T12Z_MSC_GDPS_DewPointDepression_IsbL-0970_LatLon0.15_PT105H.grib2 2026-04-30 16:24 1.0M
20260430T12Z_MSC_GDPS_DewPointDepression_IsbL-0985_LatLon0.15_PT105H.grib2 2026-04-30 16:24 1.0M
20260430T12Z_MSC_GDPS_DewPointDepression_IsbL-1000_LatLon0.15_PT105H.grib2 2026-04-30 16:24 1.0M
20260430T12Z_MSC_GDPS_DewPointDepression_IsbL-1015_LatLon0.15_PT105H.grib2 2026-04-30 16:24 921K
20260430T12Z_MSC_GDPS_DewPoint_AGL-2m_LatLon0.15_PT105H.grib2 2026-04-30 16:24 606K
20260430T12Z_MSC_GDPS_DownwardLongwaveRadiationFlux-Accum_Sfc_LatLon0.15_PT105H.grib2 2026-04-30 16:24 777K
20260430T12Z_MSC_GDPS_DownwardShortwaveRadiationFlux-Accum_NTAtm_LatLon0.15_PT105H.grib2 2026-04-30 16:24 293K
20260430T12Z_MSC_GDPS_DownwardShortwaveRadiationFlux-Accum_Sfc_LatLon0.15_PT105H.grib2 2026-04-30 16:24 1.0M
20260430T12Z_MSC_GDPS_FreezingRain-Accum1h_Sfc_LatLon0.15_PT105H.grib2 2026-04-30 16:24 43K
20260430T12Z_MSC_GDPS_FreezingRain-Accum3h_Sfc_LatLon0.15_PT105H.grib2 2026-04-30 16:24 50K
20260430T12Z_MSC_GDPS_FreezingRain-Accum_Sfc_LatLon0.15_PT105H.grib2 2026-04-30 16:24 383K
20260430T12Z_MSC_GDPS_GeopotentialHeight_IsbL-0001_LatLon0.15_PT105H.grib2 2026-04-30 16:24 417K
20260430T12Z_MSC_GDPS_GeopotentialHeight_IsbL-0005_LatLon0.15_PT105H.grib2 2026-04-30 16:24 490K
20260430T12Z_MSC_GDPS_GeopotentialHeight_IsbL-0010_LatLon0.15_PT105H.grib2 2026-04-30 16:24 482K
20260430T12Z_MSC_GDPS_GeopotentialHeight_IsbL-0020_LatLon0.15_PT105H.grib2 2026-04-30 16:24 416K
20260430T12Z_MSC_GDPS_GeopotentialHeight_IsbL-0030_LatLon0.15_PT105H.grib2 2026-04-30 16:24 571K
20260430T12Z_MSC_GDPS_GeopotentialHeight_IsbL-0050_LatLon0.15_PT105H.grib2 2026-04-30 16:24 573K
20260430T12Z_MSC_GDPS_GeopotentialHeight_IsbL-0100_LatLon0.15_PT105H.grib2 2026-04-30 16:24 610K
20260430T12Z_MSC_GDPS_GeopotentialHeight_IsbL-0150_LatLon0.15_PT105H.grib2 2026-04-30 16:24 629K
20260430T12Z_MSC_GDPS_GeopotentialHeight_IsbL-0175_LatLon0.15_PT105H.grib2 2026-04-30 16:24 633K
20260430T12Z_MSC_GDPS_GeopotentialHeight_IsbL-0200_LatLon0.15_PT105H.grib2 2026-04-30 16:24 636K
20260430T12Z_MSC_GDPS_GeopotentialHeight_IsbL-0225_LatLon0.15_PT105H.grib2 2026-04-30 16:24 639K
20260430T12Z_MSC_GDPS_GeopotentialHeight_IsbL-0250_LatLon0.15_PT105H.grib2 2026-04-30 16:24 641K
20260430T12Z_MSC_GDPS_GeopotentialHeight_IsbL-0275_LatLon0.15_PT105H.grib2 2026-04-30 16:24 641K
20260430T12Z_MSC_GDPS_GeopotentialHeight_IsbL-0300_LatLon0.15_PT105H.grib2 2026-04-30 16:24 640K
20260430T12Z_MSC_GDPS_GeopotentialHeight_IsbL-0350_LatLon0.15_PT105H.grib2 2026-04-30 16:24 627K
20260430T12Z_MSC_GDPS_GeopotentialHeight_IsbL-0400_LatLon0.15_PT105H.grib2 2026-04-30 16:24 619K
20260430T12Z_MSC_GDPS_GeopotentialHeight_IsbL-0450_LatLon0.15_PT105H.grib2 2026-04-30 16:24 608K
20260430T12Z_MSC_GDPS_GeopotentialHeight_IsbL-0500_LatLon0.15_PT105H.grib2 2026-04-30 16:24 529K
20260430T12Z_MSC_GDPS_GeopotentialHeight_IsbL-0550_LatLon0.15_PT105H.grib2 2026-04-30 16:24 525K
20260430T12Z_MSC_GDPS_GeopotentialHeight_IsbL-0600_LatLon0.15_PT105H.grib2 2026-04-30 16:24 521K
20260430T12Z_MSC_GDPS_GeopotentialHeight_IsbL-0650_LatLon0.15_PT105H.grib2 2026-04-30 16:24 689K
20260430T12Z_MSC_GDPS_GeopotentialHeight_IsbL-0700_LatLon0.15_PT105H.grib2 2026-04-30 16:24 688K
20260430T12Z_MSC_GDPS_GeopotentialHeight_IsbL-0750_LatLon0.15_PT105H.grib2 2026-04-30 16:24 687K
20260430T12Z_MSC_GDPS_GeopotentialHeight_IsbL-0800_LatLon0.15_PT105H.grib2 2026-04-30 16:24 701K
20260430T12Z_MSC_GDPS_GeopotentialHeight_IsbL-0850_LatLon0.15_PT105H.grib2 2026-04-30 16:24 706K
20260430T12Z_MSC_GDPS_GeopotentialHeight_IsbL-0875_LatLon0.15_PT105H.grib2 2026-04-30 16:24 716K
20260430T12Z_MSC_GDPS_GeopotentialHeight_IsbL-0900_LatLon0.15_PT105H.grib2 2026-04-30 16:24 720K
20260430T12Z_MSC_GDPS_GeopotentialHeight_IsbL-0925_LatLon0.15_PT105H.grib2 2026-04-30 16:24 731K
20260430T12Z_MSC_GDPS_GeopotentialHeight_IsbL-0950_LatLon0.15_PT105H.grib2 2026-04-30 16:24 737K
20260430T12Z_MSC_GDPS_GeopotentialHeight_IsbL-0970_LatLon0.15_PT105H.grib2 2026-04-30 16:24 746K
20260430T12Z_MSC_GDPS_GeopotentialHeight_IsbL-0985_LatLon0.15_PT105H.grib2 2026-04-30 16:24 762K
20260430T12Z_MSC_GDPS_GeopotentialHeight_IsbL-1000_LatLon0.15_PT105H.grib2 2026-04-30 16:24 783K
20260430T12Z_MSC_GDPS_GeopotentialHeight_IsbL-1015_LatLon0.15_PT105H.grib2 2026-04-30 16:24 805K
20260430T12Z_MSC_GDPS_Humidex_Sfc_LatLon0.15_PT105H.grib2 2026-04-30 16:24 5.3M
20260430T12Z_MSC_GDPS_IcePellets-Accum1h_Sfc_LatLon0.15_PT105H.grib2 2026-04-30 16:24 8.2K
20260430T12Z_MSC_GDPS_IcePellets-Accum3h_Sfc_LatLon0.15_PT105H.grib2 2026-04-30 16:24 10K
20260430T12Z_MSC_GDPS_IcePellets-Accum_Sfc_LatLon0.15_PT105H.grib2 2026-04-30 16:24 92K
20260430T12Z_MSC_GDPS_KIndex_Sfc_LatLon0.15_PT105H.grib2 2026-04-30 16:24 6.5M
20260430T12Z_MSC_GDPS_LatentHeatNetFlux_Sfc_LatLon0.15_PT105H.grib2 2026-04-30 16:24 671K
20260430T12Z_MSC_GDPS_LiftedIndex-MU-VT_IsbL-0500_LatLon0.15_PT105H.grib2 2026-04-30 16:24 5.4M
20260430T12Z_MSC_GDPS_NetLongwaveRadiationFlux-Accum_Sfc_LatLon0.15_PT105H.grib2 2026-04-30 16:24 1.0M
20260430T12Z_MSC_GDPS_NetShortwaveRadiationFlux-Accum_Sfc_LatLon0.15_PT105H.grib2 2026-04-30 16:24 960K
20260430T12Z_MSC_GDPS_O3MixingRatio_Sfc_LatLon0.15_PT105H.grib2 2026-04-30 16:45 1.9M
20260430T12Z_MSC_GDPS_O3_EAtm_LatLon0.15_PT105H.grib2 2026-04-30 16:45 2.4M
20260430T12Z_MSC_GDPS_PlanetaryBoundaryLayerHeight_Sfc_LatLon0.15_PT105H.grib2 2026-04-30 16:24 2.4M
20260430T12Z_MSC_GDPS_Precip-Accum1h_Sfc_LatLon0.15_PT105H.grib2 2026-04-30 16:24 3.2M
20260430T12Z_MSC_GDPS_Precip-Accum3h_Sfc_LatLon0.15_PT105H.grib2 2026-04-30 16:24 3.5M
20260430T12Z_MSC_GDPS_Precip-Accum_Sfc_LatLon0.15_PT105H.grib2 2026-04-30 16:24 5.4M
20260430T12Z_MSC_GDPS_PrecipRate_Sfc_LatLon0.15_PT105H.grib2 2026-04-30 16:24 3.0M
20260430T12Z_MSC_GDPS_PrecipType-Instant_Sfc_LatLon0.15_PT105H.grib2 2026-04-30 16:24 1.6M
20260430T12Z_MSC_GDPS_Pressure_MSL_LatLon0.15_PT105H.grib2 2026-04-30 16:24 819K
20260430T12Z_MSC_GDPS_Pressure_PVU-1.5_LatLon0.15_PT105H.grib2 2026-04-30 16:24 5.8M
20260430T12Z_MSC_GDPS_Pressure_PVU-1_LatLon0.15_PT105H.grib2 2026-04-30 16:24 6.0M
20260430T12Z_MSC_GDPS_Pressure_PVU-2_LatLon0.15_PT105H.grib2 2026-04-30 16:24 5.6M
20260430T12Z_MSC_GDPS_Pressure_Sfc_LatLon0.15_PT105H.grib2 2026-04-30 16:24 1.1M
20260430T12Z_MSC_GDPS_RadiativeTemp_Sfc_LatLon0.15_PT105H.grib2 2026-04-30 16:24 657K
20260430T12Z_MSC_GDPS_Rain-Accum1h_Sfc_LatLon0.15_PT105H.grib2 2026-04-30 16:24 1.6M
20260430T12Z_MSC_GDPS_Rain-Accum3h_Sfc_LatLon0.15_PT105H.grib2 2026-04-30 16:24 1.7M
20260430T12Z_MSC_GDPS_Rain-Accum_Sfc_LatLon0.15_PT105H.grib2 2026-04-30 16:24 4.1M
20260430T12Z_MSC_GDPS_RelativeHumidity_AGL-2m_LatLon0.15_PT105H.grib2 2026-04-30 16:24 1.1M
20260430T12Z_MSC_GDPS_RelativeHumidity_IsbL-0010_LatLon0.15_PT105H.grib2 2026-04-30 16:24 201K
20260430T12Z_MSC_GDPS_RelativeHumidity_IsbL-0020_LatLon0.15_PT105H.grib2 2026-04-30 16:24 167K
20260430T12Z_MSC_GDPS_RelativeHumidity_IsbL-0030_LatLon0.15_PT105H.grib2 2026-04-30 16:24 189K
20260430T12Z_MSC_GDPS_RelativeHumidity_IsbL-0050_LatLon0.15_PT105H.grib2 2026-04-30 16:24 341K
20260430T12Z_MSC_GDPS_RelativeHumidity_IsbL-0100_LatLon0.15_PT105H.grib2 2026-04-30 16:24 506K
20260430T12Z_MSC_GDPS_RelativeHumidity_IsbL-0150_LatLon0.15_PT105H.grib2 2026-04-30 16:24 663K
20260430T12Z_MSC_GDPS_RelativeHumidity_IsbL-0175_LatLon0.15_PT105H.grib2 2026-04-30 16:24 790K
20260430T12Z_MSC_GDPS_RelativeHumidity_IsbL-0200_LatLon0.15_PT105H.grib2 2026-04-30 16:24 711K
20260430T12Z_MSC_GDPS_RelativeHumidity_IsbL-0225_LatLon0.15_PT105H.grib2 2026-04-30 16:24 793K
20260430T12Z_MSC_GDPS_RelativeHumidity_IsbL-0250_LatLon0.15_PT105H.grib2 2026-04-30 16:24 865K
20260430T12Z_MSC_GDPS_RelativeHumidity_IsbL-0275_LatLon0.15_PT105H.grib2 2026-04-30 16:24 888K
20260430T12Z_MSC_GDPS_RelativeHumidity_IsbL-0300_LatLon0.15_PT105H.grib2 2026-04-30 16:24 930K
20260430T12Z_MSC_GDPS_RelativeHumidity_IsbL-0350_LatLon0.15_PT105H.grib2 2026-04-30 16:24 952K
20260430T12Z_MSC_GDPS_RelativeHumidity_IsbL-0400_LatLon0.15_PT105H.grib2 2026-04-30 16:24 973K
20260430T12Z_MSC_GDPS_RelativeHumidity_IsbL-0450_LatLon0.15_PT105H.grib2 2026-04-30 16:24 1.0M
20260430T12Z_MSC_GDPS_RelativeHumidity_IsbL-0500_LatLon0.15_PT105H.grib2 2026-04-30 16:24 1.0M
20260430T12Z_MSC_GDPS_RelativeHumidity_IsbL-0550_LatLon0.15_PT105H.grib2 2026-04-30 16:24 1.0M
20260430T12Z_MSC_GDPS_RelativeHumidity_IsbL-0600_LatLon0.15_PT105H.grib2 2026-04-30 16:24 1.1M
20260430T12Z_MSC_GDPS_RelativeHumidity_IsbL-0650_LatLon0.15_PT105H.grib2 2026-04-30 16:24 1.1M
20260430T12Z_MSC_GDPS_RelativeHumidity_IsbL-0700_LatLon0.15_PT105H.grib2 2026-04-30 16:24 1.1M
20260430T12Z_MSC_GDPS_RelativeHumidity_IsbL-0750_LatLon0.15_PT105H.grib2 2026-04-30 16:24 1.2M
20260430T12Z_MSC_GDPS_RelativeHumidity_IsbL-0800_LatLon0.15_PT105H.grib2 2026-04-30 16:24 1.2M
20260430T12Z_MSC_GDPS_RelativeHumidity_IsbL-0850_LatLon0.15_PT105H.grib2 2026-04-30 16:24 1.3M
20260430T12Z_MSC_GDPS_RelativeHumidity_IsbL-0875_LatLon0.15_PT105H.grib2 2026-04-30 16:24 1.3M
20260430T12Z_MSC_GDPS_RelativeHumidity_IsbL-0900_LatLon0.15_PT105H.grib2 2026-04-30 16:24 1.2M
20260430T12Z_MSC_GDPS_RelativeHumidity_IsbL-0925_LatLon0.15_PT105H.grib2 2026-04-30 16:24 1.2M
20260430T12Z_MSC_GDPS_RelativeHumidity_IsbL-0950_LatLon0.15_PT105H.grib2 2026-04-30 16:24 1.2M
20260430T12Z_MSC_GDPS_RelativeHumidity_IsbL-0970_LatLon0.15_PT105H.grib2 2026-04-30 16:24 1.2M
20260430T12Z_MSC_GDPS_RelativeHumidity_IsbL-0985_LatLon0.15_PT105H.grib2 2026-04-30 16:24 1.2M
20260430T12Z_MSC_GDPS_RelativeHumidity_IsbL-1000_LatLon0.15_PT105H.grib2 2026-04-30 16:24 1.1M
20260430T12Z_MSC_GDPS_RelativeHumidity_IsbL-1015_LatLon0.15_PT105H.grib2 2026-04-30 16:24 1.1M
20260430T12Z_MSC_GDPS_RelativeVorticity_IsbL-0200_LatLon0.15_PT105H.grib2 2026-04-30 16:24 1.5M
20260430T12Z_MSC_GDPS_RelativeVorticity_IsbL-0250_LatLon0.15_PT105H.grib2 2026-04-30 16:24 1.3M
20260430T12Z_MSC_GDPS_RelativeVorticity_IsbL-0500_LatLon0.15_PT105H.grib2 2026-04-30 16:24 1.4M
20260430T12Z_MSC_GDPS_RelativeVorticity_IsbL-0700_LatLon0.15_PT105H.grib2 2026-04-30 16:24 1.6M
20260430T12Z_MSC_GDPS_RelativeVorticity_IsbL-0850_LatLon0.15_PT105H.grib2 2026-04-30 16:24 1.9M
20260430T12Z_MSC_GDPS_Runoff-Accum_Sfc_LatLon0.15_PT105H.grib2 2026-04-30 16:24 133K
20260430T12Z_MSC_GDPS_SensibleHeatNetFlux_Sfc_LatLon0.15_PT105H.grib2 2026-04-30 16:24 614K
20260430T12Z_MSC_GDPS_ShowalterIndex_IsbL-0500_LatLon0.15_PT105H.grib2 2026-04-30 16:24 6.2M
20260430T12Z_MSC_GDPS_Snow-Accum1h_Sfc_LatLon0.15_PT105H.grib2 2026-04-30 16:24 1.1M
20260430T12Z_MSC_GDPS_Snow-Accum3h_Sfc_LatLon0.15_PT105H.grib2 2026-04-30 16:24 1.1M
20260430T12Z_MSC_GDPS_Snow-Accum_Sfc_LatLon0.15_PT105H.grib2 2026-04-30 16:24 2.0M
20260430T12Z_MSC_GDPS_SnowDensity_Sfc_LatLon0.15_PT105H.grib2 2026-04-30 16:24 263K
20260430T12Z_MSC_GDPS_SnowDepth_Sfc_LatLon0.15_PT105H.grib2 2026-04-30 16:24 1.7M
20260430T12Z_MSC_GDPS_SoilTemp_DBS-0to10cm_LatLon0.15_PT105H.grib2 2026-04-30 16:24 513K
20260430T12Z_MSC_GDPS_SoilTemp_Sfc_LatLon0.15_PT105H.grib2 2026-04-30 16:24 579K
20260430T12Z_MSC_GDPS_SoilVolumetricIceContent_Sfc_LatLon0.15_PT105H.grib2 2026-04-30 16:24 194K
20260430T12Z_MSC_GDPS_SoilVolumetricWaterContent_DBS-0to10cm_LatLon0.15_PT105H.grib2 2026-04-30 16:24 590K
20260430T12Z_MSC_GDPS_SoilVolumetricWaterContent_DBS-0to1cm_LatLon0.15_PT105H.grib2 2026-04-30 16:24 651K
20260430T12Z_MSC_GDPS_SpecificHumidity_AGL-120m_LatLon0.15_PT105H.grib2 2026-04-30 16:24 1.1M
20260430T12Z_MSC_GDPS_SpecificHumidity_AGL-2m_LatLon0.15_PT105H.grib2 2026-04-30 16:24 1.2M
20260430T12Z_MSC_GDPS_SpecificHumidity_AGL-40m_LatLon0.15_PT105H.grib2 2026-04-30 16:24 1.1M
20260430T12Z_MSC_GDPS_SpecificHumidity_AGL-80m_LatLon0.15_PT105H.grib2 2026-04-30 16:24 1.1M
20260430T12Z_MSC_GDPS_SpecificHumidity_IsbL-0001_LatLon0.15_PT105H.grib2 2026-04-30 16:24 1.2M
20260430T12Z_MSC_GDPS_SpecificHumidity_IsbL-0005_LatLon0.15_PT105H.grib2 2026-04-30 16:24 1.2M
20260430T12Z_MSC_GDPS_SpecificHumidity_IsbL-0010_LatLon0.15_PT105H.grib2 2026-04-30 16:24 1.3M
20260430T12Z_MSC_GDPS_SpecificHumidity_IsbL-0020_LatLon0.15_PT105H.grib2 2026-04-30 16:24 1.3M
20260430T12Z_MSC_GDPS_SpecificHumidity_IsbL-0030_LatLon0.15_PT105H.grib2 2026-04-30 16:24 1.6M
20260430T12Z_MSC_GDPS_SpecificHumidity_IsbL-0050_LatLon0.15_PT105H.grib2 2026-04-30 16:24 1.6M
20260430T12Z_MSC_GDPS_SpecificHumidity_IsbL-0100_LatLon0.15_PT105H.grib2 2026-04-30 16:24 1.3M
20260430T12Z_MSC_GDPS_SpecificHumidity_IsbL-0150_LatLon0.15_PT105H.grib2 2026-04-30 16:24 1.3M
20260430T12Z_MSC_GDPS_SpecificHumidity_IsbL-0175_LatLon0.15_PT105H.grib2 2026-04-30 16:24 1.3M
20260430T12Z_MSC_GDPS_SpecificHumidity_IsbL-0200_LatLon0.15_PT105H.grib2 2026-04-30 16:24 1.3M
20260430T12Z_MSC_GDPS_SpecificHumidity_IsbL-0225_LatLon0.15_PT105H.grib2 2026-04-30 16:24 1.3M
20260430T12Z_MSC_GDPS_SpecificHumidity_IsbL-0250_LatLon0.15_PT105H.grib2 2026-04-30 16:24 1.4M
20260430T12Z_MSC_GDPS_SpecificHumidity_IsbL-0275_LatLon0.15_PT105H.grib2 2026-04-30 16:24 1.3M
20260430T12Z_MSC_GDPS_SpecificHumidity_IsbL-0300_LatLon0.15_PT105H.grib2 2026-04-30 16:24 1.2M
20260430T12Z_MSC_GDPS_SpecificHumidity_IsbL-0350_LatLon0.15_PT105H.grib2 2026-04-30 16:24 1.2M
20260430T12Z_MSC_GDPS_SpecificHumidity_IsbL-0400_LatLon0.15_PT105H.grib2 2026-04-30 16:24 1.5M
20260430T12Z_MSC_GDPS_SpecificHumidity_IsbL-0450_LatLon0.15_PT105H.grib2 2026-04-30 16:24 1.6M
20260430T12Z_MSC_GDPS_SpecificHumidity_IsbL-0500_LatLon0.15_PT105H.grib2 2026-04-30 16:24 1.4M
20260430T12Z_MSC_GDPS_SpecificHumidity_IsbL-0550_LatLon0.15_PT105H.grib2 2026-04-30 16:24 1.6M
20260430T12Z_MSC_GDPS_SpecificHumidity_IsbL-0600_LatLon0.15_PT105H.grib2 2026-04-30 16:24 1.7M
20260430T12Z_MSC_GDPS_SpecificHumidity_IsbL-0650_LatLon0.15_PT105H.grib2 2026-04-30 16:24 1.5M
20260430T12Z_MSC_GDPS_SpecificHumidity_IsbL-0700_LatLon0.15_PT105H.grib2 2026-04-30 16:24 1.6M
20260430T12Z_MSC_GDPS_SpecificHumidity_IsbL-0750_LatLon0.15_PT105H.grib2 2026-04-30 16:24 1.7M
20260430T12Z_MSC_GDPS_SpecificHumidity_IsbL-0800_LatLon0.15_PT105H.grib2 2026-04-30 16:24 1.8M
20260430T12Z_MSC_GDPS_SpecificHumidity_IsbL-0850_LatLon0.15_PT105H.grib2 2026-04-30 16:24 1.9M
20260430T12Z_MSC_GDPS_SpecificHumidity_IsbL-0875_LatLon0.15_PT105H.grib2 2026-04-30 16:24 1.9M
20260430T12Z_MSC_GDPS_SpecificHumidity_IsbL-0900_LatLon0.15_PT105H.grib2 2026-04-30 16:24 1.9M
20260430T12Z_MSC_GDPS_SpecificHumidity_IsbL-0925_LatLon0.15_PT105H.grib2 2026-04-30 16:24 1.6M
20260430T12Z_MSC_GDPS_SpecificHumidity_IsbL-0950_LatLon0.15_PT105H.grib2 2026-04-30 16:24 1.6M
20260430T12Z_MSC_GDPS_SpecificHumidity_IsbL-0970_LatLon0.15_PT105H.grib2 2026-04-30 16:24 1.5M
20260430T12Z_MSC_GDPS_SpecificHumidity_IsbL-0985_LatLon0.15_PT105H.grib2 2026-04-30 16:24 1.5M
20260430T12Z_MSC_GDPS_SpecificHumidity_IsbL-1000_LatLon0.15_PT105H.grib2 2026-04-30 16:24 1.5M
20260430T12Z_MSC_GDPS_SpecificHumidity_IsbL-1015_LatLon0.15_PT105H.grib2 2026-04-30 16:24 1.5M
20260430T12Z_MSC_GDPS_SpecificHumidity_Sfc_LatLon0.15_PT105H.grib2 2026-04-30 16:24 665K
20260430T12Z_MSC_GDPS_Thickness_IsbL-0850to0700_LatLon0.15_PT105H.grib2 2026-04-30 16:24 467K
20260430T12Z_MSC_GDPS_Thickness_IsbL-1000to0500_LatLon0.15_PT105H.grib2 2026-04-30 16:24 371K
20260430T12Z_MSC_GDPS_Thickness_IsbL-1000to0850_LatLon0.15_PT105H.grib2 2026-04-30 16:24 486K
20260430T12Z_MSC_GDPS_TotalCloudCover_Sfc_LatLon0.15_PT105H.grib2 2026-04-30 16:24 824K
20260430T12Z_MSC_GDPS_TotalTotalsIndex_Sfc_LatLon0.15_PT105H.grib2 2026-04-30 16:24 6.2M
20260430T12Z_MSC_GDPS_UVIndex-ClearSky_Sfc_LatLon0.15_PT105H.grib2 2026-04-30 16:45 1.0M
20260430T12Z_MSC_GDPS_UVIndex_Sfc_LatLon0.15_PT105H.grib2 2026-04-30 16:45 1.5M
20260430T12Z_MSC_GDPS_UpwardLongwaveRadiationFlux_NTAtm_LatLon0.15_PT105H.grib2 2026-04-30 16:24 828K
20260430T12Z_MSC_GDPS_VerticalVelocity_IsbL-0200_LatLon0.15_PT105H.grib2 2026-04-30 16:24 937K
20260430T12Z_MSC_GDPS_VerticalVelocity_IsbL-0250_LatLon0.15_PT105H.grib2 2026-04-30 16:24 1.0M
20260430T12Z_MSC_GDPS_VerticalVelocity_IsbL-0500_LatLon0.15_PT105H.grib2 2026-04-30 16:24 1.0M
20260430T12Z_MSC_GDPS_VerticalVelocity_IsbL-0600_LatLon0.15_PT105H.grib2 2026-04-30 16:24 1.1M
20260430T12Z_MSC_GDPS_VerticalVelocity_IsbL-0700_LatLon0.15_PT105H.grib2 2026-04-30 16:24 1.1M
20260430T12Z_MSC_GDPS_VerticalVelocity_IsbL-0850_LatLon0.15_PT105H.grib2 2026-04-30 16:24 1.4M
20260430T12Z_MSC_GDPS_WindChill_Sfc_LatLon0.15_PT105H.grib2 2026-04-30 16:24 5.3M
20260430T12Z_MSC_GDPS_WindDir_AGL-10m_LatLon0.15_PT105H.grib2 2026-04-30 16:24 1.3M
20260430T12Z_MSC_GDPS_WindDir_AGL-120m_LatLon0.15_PT105H.grib2 2026-04-30 16:24 1.3M
20260430T12Z_MSC_GDPS_WindDir_AGL-40m_LatLon0.15_PT105H.grib2 2026-04-30 16:24 1.4M
20260430T12Z_MSC_GDPS_WindDir_AGL-80m_LatLon0.15_PT105H.grib2 2026-04-30 16:24 1.4M
20260430T12Z_MSC_GDPS_WindDir_IsbL-0001_LatLon0.15_PT105H.grib2 2026-04-30 16:24 674K
20260430T12Z_MSC_GDPS_WindDir_IsbL-0005_LatLon0.15_PT105H.grib2 2026-04-30 16:24 812K
20260430T12Z_MSC_GDPS_WindDir_IsbL-0010_LatLon0.15_PT105H.grib2 2026-04-30 16:24 834K
20260430T12Z_MSC_GDPS_WindDir_IsbL-0020_LatLon0.15_PT105H.grib2 2026-04-30 16:24 943K
20260430T12Z_MSC_GDPS_WindDir_IsbL-0030_LatLon0.15_PT105H.grib2 2026-04-30 16:24 948K
20260430T12Z_MSC_GDPS_WindDir_IsbL-0050_LatLon0.15_PT105H.grib2 2026-04-30 16:24 948K
20260430T12Z_MSC_GDPS_WindDir_IsbL-0100_LatLon0.15_PT105H.grib2 2026-04-30 16:24 1.0M
20260430T12Z_MSC_GDPS_WindDir_IsbL-0150_LatLon0.15_PT105H.grib2 2026-04-30 16:24 1.0M
20260430T12Z_MSC_GDPS_WindDir_IsbL-0175_LatLon0.15_PT105H.grib2 2026-04-30 16:24 1.0M
20260430T12Z_MSC_GDPS_WindDir_IsbL-0200_LatLon0.15_PT105H.grib2 2026-04-30 16:24 1.1M
20260430T12Z_MSC_GDPS_WindDir_IsbL-0225_LatLon0.15_PT105H.grib2 2026-04-30 16:24 1.1M
20260430T12Z_MSC_GDPS_WindDir_IsbL-0250_LatLon0.15_PT105H.grib2 2026-04-30 16:24 1.1M
20260430T12Z_MSC_GDPS_WindDir_IsbL-0275_LatLon0.15_PT105H.grib2 2026-04-30 16:24 1.2M
20260430T12Z_MSC_GDPS_WindDir_IsbL-0300_LatLon0.15_PT105H.grib2 2026-04-30 16:24 1.2M
20260430T12Z_MSC_GDPS_WindDir_IsbL-0350_LatLon0.15_PT105H.grib2 2026-04-30 16:24 1.2M
20260430T12Z_MSC_GDPS_WindDir_IsbL-0400_LatLon0.15_PT105H.grib2 2026-04-30 16:24 1.3M
20260430T12Z_MSC_GDPS_WindDir_IsbL-0450_LatLon0.15_PT105H.grib2 2026-04-30 16:24 1.3M
20260430T12Z_MSC_GDPS_WindDir_IsbL-0500_LatLon0.15_PT105H.grib2 2026-04-30 16:24 1.3M
20260430T12Z_MSC_GDPS_WindDir_IsbL-0550_LatLon0.15_PT105H.grib2 2026-04-30 16:24 1.4M
20260430T12Z_MSC_GDPS_WindDir_IsbL-0600_LatLon0.15_PT105H.grib2 2026-04-30 16:24 1.4M
20260430T12Z_MSC_GDPS_WindDir_IsbL-0650_LatLon0.15_PT105H.grib2 2026-04-30 16:24 1.5M
20260430T12Z_MSC_GDPS_WindDir_IsbL-0700_LatLon0.15_PT105H.grib2 2026-04-30 16:24 1.6M
20260430T12Z_MSC_GDPS_WindDir_IsbL-0750_LatLon0.15_PT105H.grib2 2026-04-30 16:24 1.7M
20260430T12Z_MSC_GDPS_WindDir_IsbL-0800_LatLon0.15_PT105H.grib2 2026-04-30 16:24 1.8M
20260430T12Z_MSC_GDPS_WindDir_IsbL-0850_LatLon0.15_PT105H.grib2 2026-04-30 16:24 1.9M
20260430T12Z_MSC_GDPS_WindDir_IsbL-0875_LatLon0.15_PT105H.grib2 2026-04-30 16:24 1.9M
20260430T12Z_MSC_GDPS_WindDir_IsbL-0900_LatLon0.15_PT105H.grib2 2026-04-30 16:24 2.0M
20260430T12Z_MSC_GDPS_WindDir_IsbL-0925_LatLon0.15_PT105H.grib2 2026-04-30 16:24 2.0M
20260430T12Z_MSC_GDPS_WindDir_IsbL-0950_LatLon0.15_PT105H.grib2 2026-04-30 16:24 2.0M
20260430T12Z_MSC_GDPS_WindDir_IsbL-0970_LatLon0.15_PT105H.grib2 2026-04-30 16:24 2.0M
20260430T12Z_MSC_GDPS_WindDir_IsbL-0985_LatLon0.15_PT105H.grib2 2026-04-30 16:24 2.0M
20260430T12Z_MSC_GDPS_WindDir_IsbL-1000_LatLon0.15_PT105H.grib2 2026-04-30 16:24 2.1M
20260430T12Z_MSC_GDPS_WindDir_IsbL-1015_LatLon0.15_PT105H.grib2 2026-04-30 16:24 2.0M
20260430T12Z_MSC_GDPS_WindGust-Max_AGL-10m_LatLon0.15_PT105H.grib2 2026-04-30 16:24 2.2M
20260430T12Z_MSC_GDPS_WindGust-Min_AGL-10m_LatLon0.15_PT105H.grib2 2026-04-30 16:24 2.2M
20260430T12Z_MSC_GDPS_WindGust_AGL-10m_LatLon0.15_PT105H.grib2 2026-04-30 16:24 2.2M
20260430T12Z_MSC_GDPS_WindSpeed_AGL-10m_LatLon0.15_PT105H.grib2 2026-04-30 16:24 1.1M
20260430T12Z_MSC_GDPS_WindSpeed_AGL-120m_LatLon0.15_PT105H.grib2 2026-04-30 16:24 1.2M
20260430T12Z_MSC_GDPS_WindSpeed_AGL-40m_LatLon0.15_PT105H.grib2 2026-04-30 16:24 1.2M
20260430T12Z_MSC_GDPS_WindSpeed_AGL-80m_LatLon0.15_PT105H.grib2 2026-04-30 16:24 1.2M
20260430T12Z_MSC_GDPS_WindSpeed_IsbL-0001_LatLon0.15_PT105H.grib2 2026-04-30 16:24 649K
20260430T12Z_MSC_GDPS_WindSpeed_IsbL-0005_LatLon0.15_PT105H.grib2 2026-04-30 16:24 613K
20260430T12Z_MSC_GDPS_WindSpeed_IsbL-0010_LatLon0.15_PT105H.grib2 2026-04-30 16:24 628K
20260430T12Z_MSC_GDPS_WindSpeed_IsbL-0020_LatLon0.15_PT105H.grib2 2026-04-30 16:24 858K
20260430T12Z_MSC_GDPS_WindSpeed_IsbL-0030_LatLon0.15_PT105H.grib2 2026-04-30 16:24 867K
20260430T12Z_MSC_GDPS_WindSpeed_IsbL-0050_LatLon0.15_PT105H.grib2 2026-04-30 16:24 1.0M
20260430T12Z_MSC_GDPS_WindSpeed_IsbL-0100_LatLon0.15_PT105H.grib2 2026-04-30 16:24 1.1M
20260430T12Z_MSC_GDPS_WindSpeed_IsbL-0150_LatLon0.15_PT105H.grib2 2026-04-30 16:24 947K
20260430T12Z_MSC_GDPS_WindSpeed_IsbL-0175_LatLon0.15_PT105H.grib2 2026-04-30 16:24 1.0M
20260430T12Z_MSC_GDPS_WindSpeed_IsbL-0200_LatLon0.15_PT105H.grib2 2026-04-30 16:24 1.1M
20260430T12Z_MSC_GDPS_WindSpeed_IsbL-0225_LatLon0.15_PT105H.grib2 2026-04-30 16:24 1.1M
20260430T12Z_MSC_GDPS_WindSpeed_IsbL-0250_LatLon0.15_PT105H.grib2 2026-04-30 16:24 1.1M
20260430T12Z_MSC_GDPS_WindSpeed_IsbL-0275_LatLon0.15_PT105H.grib2 2026-04-30 16:24 1.1M
20260430T12Z_MSC_GDPS_WindSpeed_IsbL-0300_LatLon0.15_PT105H.grib2 2026-04-30 16:24 1.1M
20260430T12Z_MSC_GDPS_WindSpeed_IsbL-0350_LatLon0.15_PT105H.grib2 2026-04-30 16:24 1.1M
20260430T12Z_MSC_GDPS_WindSpeed_IsbL-0400_LatLon0.15_PT105H.grib2 2026-04-30 16:24 1.1M
20260430T12Z_MSC_GDPS_WindSpeed_IsbL-0450_LatLon0.15_PT105H.grib2 2026-04-30 16:24 1.1M
20260430T12Z_MSC_GDPS_WindSpeed_IsbL-0500_LatLon0.15_PT105H.grib2 2026-04-30 16:24 1.1M
20260430T12Z_MSC_GDPS_WindSpeed_IsbL-0550_LatLon0.15_PT105H.grib2 2026-04-30 16:24 1.1M
20260430T12Z_MSC_GDPS_WindSpeed_IsbL-0600_LatLon0.15_PT105H.grib2 2026-04-30 16:24 1.1M
20260430T12Z_MSC_GDPS_WindSpeed_IsbL-0650_LatLon0.15_PT105H.grib2 2026-04-30 16:24 1.4M
20260430T12Z_MSC_GDPS_WindSpeed_IsbL-0700_LatLon0.15_PT105H.grib2 2026-04-30 16:24 1.5M
20260430T12Z_MSC_GDPS_WindSpeed_IsbL-0750_LatLon0.15_PT105H.grib2 2026-04-30 16:24 1.6M
20260430T12Z_MSC_GDPS_WindSpeed_IsbL-0800_LatLon0.15_PT105H.grib2 2026-04-30 16:24 1.6M
20260430T12Z_MSC_GDPS_WindSpeed_IsbL-0850_LatLon0.15_PT105H.grib2 2026-04-30 16:24 1.7M
20260430T12Z_MSC_GDPS_WindSpeed_IsbL-0875_LatLon0.15_PT105H.grib2 2026-04-30 16:24 1.8M
20260430T12Z_MSC_GDPS_WindSpeed_IsbL-0900_LatLon0.15_PT105H.grib2 2026-04-30 16:24 1.8M
20260430T12Z_MSC_GDPS_WindSpeed_IsbL-0925_LatLon0.15_PT105H.grib2 2026-04-30 16:24 1.8M
20260430T12Z_MSC_GDPS_WindSpeed_IsbL-0950_LatLon0.15_PT105H.grib2 2026-04-30 16:24 1.9M
20260430T12Z_MSC_GDPS_WindSpeed_IsbL-0970_LatLon0.15_PT105H.grib2 2026-04-30 16:24 1.9M
20260430T12Z_MSC_GDPS_WindSpeed_IsbL-0985_LatLon0.15_PT105H.grib2 2026-04-30 16:24 1.9M
20260430T12Z_MSC_GDPS_WindSpeed_IsbL-1000_LatLon0.15_PT105H.grib2 2026-04-30 16:24 1.9M
20260430T12Z_MSC_GDPS_WindSpeed_IsbL-1015_LatLon0.15_PT105H.grib2 2026-04-30 16:24 1.8M
20260430T12Z_MSC_GDPS_WindU_AGL-10m_LatLon0.15_PT105H.grib2 2026-04-30 16:24 1.3M
20260430T12Z_MSC_GDPS_WindU_AGL-120m_LatLon0.15_PT105H.grib2 2026-04-30 16:24 1.0M
20260430T12Z_MSC_GDPS_WindU_AGL-40m_LatLon0.15_PT105H.grib2 2026-04-30 16:24 970K
20260430T12Z_MSC_GDPS_WindU_AGL-80m_LatLon0.15_PT105H.grib2 2026-04-30 16:24 1.0M
20260430T12Z_MSC_GDPS_WindU_IsbL-0001_LatLon0.15_PT105H.grib2 2026-04-30 16:24 501K
20260430T12Z_MSC_GDPS_WindU_IsbL-0005_LatLon0.15_PT105H.grib2 2026-04-30 16:24 692K
20260430T12Z_MSC_GDPS_WindU_IsbL-0010_LatLon0.15_PT105H.grib2 2026-04-30 16:24 702K
20260430T12Z_MSC_GDPS_WindU_IsbL-0020_LatLon0.15_PT105H.grib2 2026-04-30 16:24 732K
20260430T12Z_MSC_GDPS_WindU_IsbL-0030_LatLon0.15_PT105H.grib2 2026-04-30 16:24 742K
20260430T12Z_MSC_GDPS_WindU_IsbL-0050_LatLon0.15_PT105H.grib2 2026-04-30 16:24 701K
20260430T12Z_MSC_GDPS_WindU_IsbL-0100_LatLon0.15_PT105H.grib2 2026-04-30 16:24 930K
20260430T12Z_MSC_GDPS_WindU_IsbL-0150_LatLon0.15_PT105H.grib2 2026-04-30 16:24 1.0M
20260430T12Z_MSC_GDPS_WindU_IsbL-0175_LatLon0.15_PT105H.grib2 2026-04-30 16:24 1.0M
20260430T12Z_MSC_GDPS_WindU_IsbL-0200_LatLon0.15_PT105H.grib2 2026-04-30 16:24 1.0M
20260430T12Z_MSC_GDPS_WindU_IsbL-0225_LatLon0.15_PT105H.grib2 2026-04-30 16:24 850K
20260430T12Z_MSC_GDPS_WindU_IsbL-0250_LatLon0.15_PT105H.grib2 2026-04-30 16:24 853K
20260430T12Z_MSC_GDPS_WindU_IsbL-0275_LatLon0.15_PT105H.grib2 2026-04-30 16:24 881K
20260430T12Z_MSC_GDPS_WindU_IsbL-0300_LatLon0.15_PT105H.grib2 2026-04-30 16:24 872K
20260430T12Z_MSC_GDPS_WindU_IsbL-0350_LatLon0.15_PT105H.grib2 2026-04-30 16:24 887K
20260430T12Z_MSC_GDPS_WindU_IsbL-0400_LatLon0.15_PT105H.grib2 2026-04-30 16:24 890K
20260430T12Z_MSC_GDPS_WindU_IsbL-0450_LatLon0.15_PT105H.grib2 2026-04-30 16:24 890K
20260430T12Z_MSC_GDPS_WindU_IsbL-0500_LatLon0.15_PT105H.grib2 2026-04-30 16:24 1.1M
20260430T12Z_MSC_GDPS_WindU_IsbL-0550_LatLon0.15_PT105H.grib2 2026-04-30 16:24 1.1M
20260430T12Z_MSC_GDPS_WindU_IsbL-0600_LatLon0.15_PT105H.grib2 2026-04-30 16:24 1.1M
20260430T12Z_MSC_GDPS_WindU_IsbL-0650_LatLon0.15_PT105H.grib2 2026-04-30 16:24 1.2M
20260430T12Z_MSC_GDPS_WindU_IsbL-0700_LatLon0.15_PT105H.grib2 2026-04-30 16:24 1.2M
20260430T12Z_MSC_GDPS_WindU_IsbL-0750_LatLon0.15_PT105H.grib2 2026-04-30 16:24 1.3M
20260430T12Z_MSC_GDPS_WindU_IsbL-0800_LatLon0.15_PT105H.grib2 2026-04-30 16:24 1.4M
20260430T12Z_MSC_GDPS_WindU_IsbL-0850_LatLon0.15_PT105H.grib2 2026-04-30 16:24 1.4M
20260430T12Z_MSC_GDPS_WindU_IsbL-0875_LatLon0.15_PT105H.grib2 2026-04-30 16:24 1.5M
20260430T12Z_MSC_GDPS_WindU_IsbL-0900_LatLon0.15_PT105H.grib2 2026-04-30 16:24 1.5M
20260430T12Z_MSC_GDPS_WindU_IsbL-0925_LatLon0.15_PT105H.grib2 2026-04-30 16:24 1.5M
20260430T12Z_MSC_GDPS_WindU_IsbL-0950_LatLon0.15_PT105H.grib2 2026-04-30 16:24 1.4M
20260430T12Z_MSC_GDPS_WindU_IsbL-0970_LatLon0.15_PT105H.grib2 2026-04-30 16:24 1.4M
20260430T12Z_MSC_GDPS_WindU_IsbL-0985_LatLon0.15_PT105H.grib2 2026-04-30 16:24 1.4M
20260430T12Z_MSC_GDPS_WindU_IsbL-1000_LatLon0.15_PT105H.grib2 2026-04-30 16:24 1.4M
20260430T12Z_MSC_GDPS_WindU_IsbL-1015_LatLon0.15_PT105H.grib2 2026-04-30 16:24 1.3M
20260430T12Z_MSC_GDPS_WindV_AGL-10m_LatLon0.15_PT105H.grib2 2026-04-30 16:24 1.6M
20260430T12Z_MSC_GDPS_WindV_AGL-120m_LatLon0.15_PT105H.grib2 2026-04-30 16:24 1.0M
20260430T12Z_MSC_GDPS_WindV_AGL-40m_LatLon0.15_PT105H.grib2 2026-04-30 16:24 1.2M
20260430T12Z_MSC_GDPS_WindV_AGL-80m_LatLon0.15_PT105H.grib2 2026-04-30 16:24 1.0M
20260430T12Z_MSC_GDPS_WindV_IsbL-0001_LatLon0.15_PT105H.grib2 2026-04-30 16:24 783K
20260430T12Z_MSC_GDPS_WindV_IsbL-0005_LatLon0.15_PT105H.grib2 2026-04-30 16:24 857K
20260430T12Z_MSC_GDPS_WindV_IsbL-0010_LatLon0.15_PT105H.grib2 2026-04-30 16:24 809K
20260430T12Z_MSC_GDPS_WindV_IsbL-0020_LatLon0.15_PT105H.grib2 2026-04-30 16:24 858K
20260430T12Z_MSC_GDPS_WindV_IsbL-0030_LatLon0.15_PT105H.grib2 2026-04-30 16:24 862K
20260430T12Z_MSC_GDPS_WindV_IsbL-0050_LatLon0.15_PT105H.grib2 2026-04-30 16:24 907K
20260430T12Z_MSC_GDPS_WindV_IsbL-0100_LatLon0.15_PT105H.grib2 2026-04-30 16:24 862K
20260430T12Z_MSC_GDPS_WindV_IsbL-0150_LatLon0.15_PT105H.grib2 2026-04-30 16:24 1.0M
20260430T12Z_MSC_GDPS_WindV_IsbL-0175_LatLon0.15_PT105H.grib2 2026-04-30 16:24 1.0M
20260430T12Z_MSC_GDPS_WindV_IsbL-0200_LatLon0.15_PT105H.grib2 2026-04-30 16:24 836K
20260430T12Z_MSC_GDPS_WindV_IsbL-0225_LatLon0.15_PT105H.grib2 2026-04-30 16:24 846K
20260430T12Z_MSC_GDPS_WindV_IsbL-0250_LatLon0.15_PT105H.grib2 2026-04-30 16:24 905K
20260430T12Z_MSC_GDPS_WindV_IsbL-0275_LatLon0.15_PT105H.grib2 2026-04-30 16:24 931K
20260430T12Z_MSC_GDPS_WindV_IsbL-0300_LatLon0.15_PT105H.grib2 2026-04-30 16:24 923K
20260430T12Z_MSC_GDPS_WindV_IsbL-0350_LatLon0.15_PT105H.grib2 2026-04-30 16:24 934K
20260430T12Z_MSC_GDPS_WindV_IsbL-0400_LatLon0.15_PT105H.grib2 2026-04-30 16:24 877K
20260430T12Z_MSC_GDPS_WindV_IsbL-0450_LatLon0.15_PT105H.grib2 2026-04-30 16:24 878K
20260430T12Z_MSC_GDPS_WindV_IsbL-0500_LatLon0.15_PT105H.grib2 2026-04-30 16:24 1.1M
20260430T12Z_MSC_GDPS_WindV_IsbL-0550_LatLon0.15_PT105H.grib2 2026-04-30 16:24 1.1M
20260430T12Z_MSC_GDPS_WindV_IsbL-0600_LatLon0.15_PT105H.grib2 2026-04-30 16:24 1.1M
20260430T12Z_MSC_GDPS_WindV_IsbL-0650_LatLon0.15_PT105H.grib2 2026-04-30 16:24 1.2M
20260430T12Z_MSC_GDPS_WindV_IsbL-0700_LatLon0.15_PT105H.grib2 2026-04-30 16:24 1.2M
20260430T12Z_MSC_GDPS_WindV_IsbL-0750_LatLon0.15_PT105H.grib2 2026-04-30 16:24 1.3M
20260430T12Z_MSC_GDPS_WindV_IsbL-0800_LatLon0.15_PT105H.grib2 2026-04-30 16:24 1.3M
20260430T12Z_MSC_GDPS_WindV_IsbL-0850_LatLon0.15_PT105H.grib2 2026-04-30 16:24 1.4M
20260430T12Z_MSC_GDPS_WindV_IsbL-0875_LatLon0.15_PT105H.grib2 2026-04-30 16:24 1.4M
20260430T12Z_MSC_GDPS_WindV_IsbL-0900_LatLon0.15_PT105H.grib2 2026-04-30 16:24 1.5M
20260430T12Z_MSC_GDPS_WindV_IsbL-0925_LatLon0.15_PT105H.grib2 2026-04-30 16:24 1.5M
20260430T12Z_MSC_GDPS_WindV_IsbL-0950_LatLon0.15_PT105H.grib2 2026-04-30 16:24 1.4M
20260430T12Z_MSC_GDPS_WindV_IsbL-0970_LatLon0.15_PT105H.grib2 2026-04-30 16:24 1.4M
20260430T12Z_MSC_GDPS_WindV_IsbL-0985_LatLon0.15_PT105H.grib2 2026-04-30 16:24 1.4M
20260430T12Z_MSC_GDPS_WindV_IsbL-1000_LatLon0.15_PT105H.grib2 2026-04-30 16:24 1.7M
20260430T12Z_MSC_GDPS_WindV_IsbL-1015_LatLon0.15_PT105H.grib2 2026-04-30 16:24 1.6M